This demonstration page uses our WeatherBlox Daily Observations layout. Learn more.

Left ArrowRight Arrow

40.92945, -100.16068

Hourly Observations for April 23, 2021

Temp ( °F °C ) Dew Point ( °F °C ) Humidity (%) Winds ( mph kmh ) Pressure ( in mb ) Visibility ( mi km ) Precip ( " mm )
12:15 am 00:15 Clear 43 6 34 1.2 72 72 S 14 22 29.86 1011 10 16 0.00 0.00
12:35 am 00:35 Clear 42 5.7 35 1.5 75 75 S 15 24 29.85 1011 10 16 0.00 0.00
12:55 am 00:55 Clear 42 5.7 35 1.6 75 75 S 20 31 29.85 1011 10 16 0.00 0.00
1:15 am 01:15 Clear 42 5.3 35 1.5 77 77 S 17 28 29.85 1011 10 16 0.00 0.00
1:35 am 01:35 Clear 41 5 35 1.6 79 79 S 15 24 29.85 1011 10 16 0.00 0.00
1:55 am 01:55 Clear 40 4.7 35 1.6 81 81 S 17 28 29.84 1011 10 16 0.00 0.00
2:15 am 02:15 Clear 40 4.5 35 1.7 82 82 S 15 24 29.84 1011 10 16 0.00 0.00
2:35 am 02:35 Clear 40 4.5 35 1.9 83 83 S 13 20 29.84 1011 10 16 0.00 0.00
2:55 am 02:55 Clear 40 4.3 35 1.9 85 85 S 12 19 29.83 1010 10 16 0.00 0.00
3:15 am 03:15 Clear 39 4 35 1.8 86 86 S 8 13 29.85 1011 10 16 0.00 0.00
3:35 am 03:35 Clear 39 4 36 2 87 87 S 8 13 29.85 1011 10 16 0.00 0.00
3:55 am 03:55 Clear 39 3.9 36 2 88 88 S 9 15 29.85 1011 10 16 0.00 0.00
4:19 am 04:19 Clear 39 4 36 2 87 87 S 5 7 29.85 1011 10 16 0.00 0.00
4:37 am 04:37 Clear 37 3 36 2 93 93 SSW 8 13 29.86 1011 10 16 0.00 0.00
4:57 am 04:57 Clear 37 3 36 2 93 93 S 5 7 29.86 1011 10 16 0.00 0.00
5:19 am 05:19 Clear 37 3 36 2 93 93 S 7 11 29.85 1011 10 16 0.00 0.00
5:37 am 05:37 Clear 36 2 36 2 100 100 SSW 7 11 29.86 1011 10 16 0.00 0.00
5:57 am 05:57 Clear 36 2 34 1 93 93 S 7 11 29.86 1011 10 16 0.00 0.00
6:17 am 06:17 Clear 36 2 34 1 93 93 S 6 9 29.86 1011 10 16 0.00 0.00
6:37 am 06:37 Clear 36 2 34 1 93 93 S 7 11 29.86 1011 7 11 0.00 0.00
6:57 am 06:57 Sunny with Mist and Fog 34 1 34 1 100 100 S 5 7 29.88 1012 5 8 0.00 0.00
7:17 am 07:17 Sunny with Mist and Fog 36 2 36 2 100 100 S 3 6 29.87 1011 5 8 0.00 0.00
7:37 am 07:37 Sunny with Mist and Fog 37 3 36 2 93 93 S 3 6 29.87 1011 5 8 0.00 0.00
7:57 am 07:57 Sunny with Mist and Fog 39 4 37 3 93 93 Calm 29.87 1011 5 8 0.00 0.00
8:17 am 08:17 Sunny 43 6 39 4 87 87 Calm 29.85 1011 7 11 0.00 0.00
8:37 am 08:37 Partly Cloudy 43 6 39 4 87 87 Calm 29.87 1011 10 16 0.00 0.00
8:57 am 08:57 Mostly Cloudy 43 6 39 4 87 87 Calm 29.87 1011 10 16 0.00 0.00
9:17 am 09:17 Mostly Cloudy 46 8 41 5 82 82 SW 7 11 29.85 1011 10 16 0.00 0.00
9:39 am 09:39 Partly Cloudy 46 8 41 5 82 82 WSW 5 7 29.85 1011 10 16 0.00 0.00
9:57 am 09:57 Partly Cloudy 48 9 41 5 76 76 W 3 6 29.84 1011 10 16 0.00 0.00
10:17 am 10:17 Sunny 48 9 43 6 82 82 Calm 29.84 1011 10 16 0.00 0.00
10:37 am 10:37 Sunny 50 10 43 6 76 76 NW 3 6 29.83 1010 10 16 0.00 0.00
10:59 am 10:59 Sunny 52 11 41 5 67 67 N 5 7 29.82 1010 10 16 0.00 0.00
11:19 am 11:19 Sunny 54 12 41 5 63 63 NNE 7 11 29.82 1010 10 16 0.00 0.00
11:37 am 11:37 Sunny 54 12 41 5 63 63 Calm 29.82 1010 10 16 0.00 0.00
11:57 am 11:57 Sunny 57 14 41 5 55 55 ENE 6 9 29.80 1009 10 16 0.00 0.00
12:19 pm 12:19 Sunny 57 14 41 5 55 55 ENE 9 15 29.80 1009 10 16 0.00 0.00
12:37 pm 12:37 Sunny 61 16 39 4 45 45 NE 9 15 29.78 1008 10 16 0.00 0.00
12:57 pm 12:57 Sunny 61 16 39 4 45 45 ENE 8 13 29.78 1008 10 16 0.00 0.00
1:17 pm 13:17 Sunny 61 16 36 2 39 39 E 9 15 29.77 1008 10 16 0.00 0.00
1:37 pm 13:37 Sunny 63 17 36 2 37 37 ENE 10 17 29.76 1008 10 16 0.00 0.00
1:57 pm 13:57 Sunny 63 17 36 2 37 37 E 9 15 29.76 1008 10 16 0.00 0.00
2:18 pm 14:18 Sunny 63 17 36 2 37 37 E 10 17 29.75 1007 10 16 0.00 0.00
2:37 pm 14:37 Sunny 64 18 34 1 32 32 NE 12 19 29.74 1007 10 16 0.00 0.00
2:57 pm 14:57 Sunny 64 18 34 1 32 32 E 7 11 29.75 1007 10 16 0.00 0.00
3:19 pm 15:19 Sunny 63 17 30 -1 30 30 E 6 9 29.76 1008 10 16 0.00 0.00
3:37 pm 15:37 Sunny 64 18 32 0 30 30 ENE 12 19 29.74 1007 10 16 0.00 0.00
3:57 pm 15:57 Sunny 64 18 28 -2 26 26 Calm 29.74 1007 10 16 0.00 0.00
4:17 pm 16:17 Partly Cloudy 64 18 30 -1 28 28 ENE 7 11 29.74 1007 10 16 0.00 0.00
4:37 pm 16:37 Partly Cloudy 64 18 28 -2 26 26 E 7 11 29.74 1007 10 16 0.00 0.00
4:57 pm 16:57 Partly Cloudy 66 19 30 -1 26 26 ENE 8 13 29.73 1007 10 16 0.00 0.00
5:17 pm 17:17 Partly Cloudy 64 18 30 -1 28 28 E 13 20 29.74 1007 10 16 0.00 0.00
5:37 pm 17:37 Sunny 64 18 30 -1 28 28 NE 10 17 29.74 1007 10 16 0.00 0.00
5:57 pm 17:57 Sunny 64 18 28 -2 26 26 ENE 10 17 29.75 1007 10 16 0.00 0.00
6:17 pm 18:17 Sunny 64 18 28 -2 26 26 ENE 10 17 29.75 1007 10 16 0.00 0.00
6:37 pm 18:37 Sunny 64 18 28 -2 26 26 E 7 11 29.75 1007 10 16 0.00 0.00
6:57 pm 18:57 Sunny 63 17 30 -1 30 30 NE 12 19 29.76 1008 10 16 0.00 0.00
7:17 pm 19:17 Sunny 63 17 30 -1 30 30 NE 8 13 29.77 1008 10 16 0.00 0.00
7:37 pm 19:37 Sunny 61 16 34 1 36 36 NE 10 17 29.78 1008 10 16 0.00 0.00
7:58 pm 19:58 Sunny 61 16 32 0 34 34 NE 9 15 29.79 1009 7 11 0.00 0.00
8:17 pm 20:17 Sunny 57 14 32 0 39 39 N 13 20 29.81 1010 7 11 0.00 0.00
8:38 pm 20:38 Clear 54 12 39 4 58 58 NNE 20 31 29.85 1011 10 16 0.00 0.00
8:58 pm 20:58 Clear 52 11 39 4 62 62 NNE 17 28 29.87 1012 10 16 0.00 0.00
9:18 pm 21:18 Clear 50 10 37 3 62 62 NNE 15 24 29.90 1013 10 16 0.00 0.00
9:38 pm 21:38 Clear 48 9 37 3 66 66 NNE 17 28 29.93 1014 10 16 0.00 0.00
9:58 pm 21:58 Clear 48 9 37 3 66 66 NE 16 26 29.93 1014 10 16 0.00 0.00
10:18 pm 22:18 Clear 46 8 37 3 71 71 NNE 16 26 29.96 1015 10 16 0.00 0.00
10:38 pm 22:38 Clear 45 7 37 3 76 76 NNE 15 24 29.98 1015 10 16 0.00 0.00
10:58 pm 22:58 Clear 43 6 36 2 76 76 N 21 33 30.01 1016 10 16 0.00 0.00
11:17 pm 23:17 Clear 41 5 36 2 81 81 N 13 20 30.03 1017 10 16 0.00 0.00
11:37 pm 23:37 Clear 39 4 34 1 81 81 N 12 19 30.05 1018 10 16 0.00 0.00
11:58 pm 23:58 Clear 37 3 34 1 87 87 NNE 10 17 30.06 1018 10 16 0.00 0.00

Powered by AerisWeather